User: anonymous   Login
Location: Unspecified
(0.0000°N, 0.0000°E)
Time: 04:30:50
(UTC+00:00)
Language:

COSMOS 2589 - Orbit

View from above orbital plane
View from above orbital plane
View from above satellite
View from above satellite

Ground track
Ground track

The orbit is defined by the following mean orbital elements,

1 64467U          26145.74575644 +.00000000 +00000-0 +00000-0 0 00000
2 64467   0.0512  54.2826 0001084 100.3904  95.1442  1.00272289    00
Epoch (UTC): 25 May 2026 17:53:53
Eccentricity: 0.0001084
inclination: 0.0512°
perigee height: 35782 km
apogee height: 35791 km
right ascension of ascending node: 54.2826°
argument of perigee: 100.3904°
revolutions per day: 1.00272289
mean anomaly at epoch: 95.1442°

The dashed part of the orbit path shows where the satellite is in the earth's shadow,  

DLR